Lapse_Rate
7.0 7.1 7.0 6.9 6.7 6.7 6.7 6.6 6.4 6.2 6.3 6.3 6.0 5.5 5.1 4.7 4.6 4.4 4.3 4.1 4.0 4.1 4.1 4.2 4.3 4.3 4.3 4.5 4.7 4.8 5.1 5.3 5.4 5.3 5.4 5.4 5.7 6.0 6.1 6.1 6.3 6.4 6.4
6.9 6.9 6.9 6.9 6.8 6.7 6.6 6.4 6.4 6.3 6.1 5.9 5.9 5.8 5.5 5.2 4.8 4.4 4.3 4.2 4.3 4.4 4.5 4.5 4.5 4.5 4.5 4.6 4.8 5.0 5.1 5.3 5.4 5.2 5.2 5.2 5.7 6.0 6.0 6.3 6.5 6.6 6.6
6.7 6.8 6.8 6.8 6.8 6.7 6.5 6.3 6.2 6.0 5.9 5.8 5.6 5.5 5.4 5.4 5.0 4.6 4.7 4.6 4.6 4.6 4.7 4.7 4.7 4.8 4.8 4.9 5.1 5.3 5.5 5.5 5.6 5.6 5.3 5.2 5.3 5.7 6.2 6.4 6.6 6.7 6.9
6.7 6.8 6.8 6.6 6.6 6.5 6.4 6.3 6.2 6.1 6.0 6.0 5.8 5.7 5.5 5.4 5.0 4.9 4.9 4.9 4.9 5.0 5.0 4.9 4.9 4.9 5.0 5.1 5.2 5.3 5.3 5.4 5.5 5.7 6.0 5.7 5.8 5.8 5.7 6.6 6.8 6.7 7.0
6.5 6.5 6.4 6.5 6.6 6.5 6.4 6.2 5.9 5.7 5.6 5.4 5.3 5.3 5.1 4.9 4.9 4.9 4.9 5.0 5.1 5.0 5.1 5.2 5.3 5.3 5.3 5.2 5.3 5.3 5.4 5.7 5.7 5.7 5.8 5.9 6.2 6.4 6.0 5.2 6.6 6.6 7.1
6.3 6.3 6.3 6.3 6.0 5.7 5.5 5.4 5.4 5.3 5.3 5.2 5.2 5.2 5.2 5.2 5.2 5.2 5.2 5.2 5.2 5.1 5.0 5.1 5.3 5.4 5.4 5.3 5.3 5.3 5.4 5.6 5.5 5.5 5.9 6.0 5.9 6.4 6.3 5.8 5.6 6.1 6.9
6.1 6.0 5.8 5.6 5.4 5.3 5.3 5.3 5.3 5.3 5.2 5.3 5.3 5.2 5.2 5.2 5.3 5.3 5.2 5.3 5.3 5.3 5.3 5.2 5.1 5.2 5.4 5.6 5.8 5.6 5.4 5.7 5.9 5.9 6.0 6.0 6.2 6.5 6.4 6.0 6.0 5.9 6.4
5.9 5.8 5.7 5.6 5.5 5.4 5.5 5.7 5.7 5.5 5.3 5.2 5.2 5.0 4.8 4.8 4.7 4.8 4.9 4.9 4.9 4.9 5.0 5.1 5.1 5.1 5.2 5.4 5.7 5.8 5.9 5.9 5.9 5.8 5.8 5.8 6.0 6.3 6.2 6.2 6.1 5.8 6.1
6.0 5.7 5.6 5.7 5.6 5.4 5.4 5.5 5.5 5.4 5.1 4.9 4.7 4.6 4.6 4.6 4.8 4.9 4.9 4.9 4.9 4.9 4.9 4.9 5.0 5.0 5.0 4.9 4.8 5.0 5.5 5.8 5.7 5.8 5.8 5.8 5.8 5.8 5.8 5.9 6.2 5.9 5.4
5.5 5.4 5.4 5.2 5.1 5.3 5.3 5.4 5.2 4.8 4.8 4.7 4.5 4.5 4.6 4.7 4.7 4.8 4.9 4.9 5.0 5.0 5.0 5.0 5.1 5.2 5.3 5.2 5.1 5.1 5.0 5.0 5.1 5.1 5.3 5.6 5.8 6.1 6.1 6.0 5.9 5.9 5.6
5.4 5.5 5.4 5.3 5.4 5.2 5.3 5.4 5.0 4.7 4.8 4.8 4.7 4.6 4.6 4.5 4.6 4.5 4.5 4.6 4.7 4.8 5.0 5.1 5.2 5.3 5.4 5.5 5.5 5.7 5.7 5.5 5.3 5.1 5.0 5.3 5.7 6.0 6.3 6.4 6.3 6.2 6.4
5.2 5.1 5.0 5.3 5.3 5.3 5.2 5.1 4.7 4.5 4.4 4.1 4.0 4.0 3.9 4.0 4.1 4.2 4.2 4.4 4.6 4.8 4.9 5.0 5.1 5.1 5.2 5.3 5.4 5.6 5.7 5.6 5.7 5.7 5.8 5.9 6.2 6.3 6.5 6.6 6.6 6.5 6.4
5.3 5.4 5.5 5.3 5.0 5.0 4.9 4.5 4.2 4.3 4.1 3.9 3.7 3.7 3.7 4.0 4.0 4.1 4.3 4.4 4.5 4.8 4.9 5.2 5.4 5.5 5.5 5.6 5.7 5.7 5.7 5.9 5.9 6.0 6.1 6.3 6.3 6.3 6.2 6.3 6.4 6.5 6.5
5.1 5.0 4.8 4.7 4.8 4.5 4.3 4.2 4.2 4.0 3.8 3.7 3.7 3.8 4.0 4.0 4.1 4.2 4.3 4.5 4.6 4.8 5.2 5.4 5.4 5.4 5.6 5.7 5.8 5.9 5.9 5.9 6.1 6.2 6.3 6.2 6.1 6.0 6.2 6.2 6.2 6.3 6.3
4.9 4.9 4.9 4.8 4.4 4.2 4.2 4.0 3.9 3.6 3.4 3.4 3.4 3.5 3.5 3.7 3.9 4.1 4.4 4.6 4.9 5.2 5.6 5.9 6.0 6.0 6.0 6.0 5.8 5.9 6.0 5.9 5.9 6.0 6.0 5.8 6.0 6.1 6.2 6.0 6.2 6.3 6.4
4.8 4.7 4.6 4.6 4.4 4.3 4.1 3.9 3.6 3.4 3.4 3.5 3.6 3.7 3.8 3.9 4.1 4.3 4.5 4.7 5.2 5.8 6.2 6.4 6.5 6.5 6.5 6.1 5.7 5.4 5.6 5.6 5.9 5.8 5.9 6.0 6.2 6.3 6.3 6.3 6.3 6.4 6.3
4.6 4.4 4.2 4.1 4.0 3.9 3.9 3.8 3.7 3.5 3.4 3.5 3.5 3.6 3.8 4.1 4.4 4.7 5.1 5.6 5.9 6.2 6.2 6.2 6.0 5.9 5.8 5.2 4.9 4.6 4.8 5.4 5.5 5.6 5.6 6.0 6.1 6.1 6.2 6.4 6.4 6.4 6.4
4.4 4.1 3.9 3.9 3.9 3.9 3.9 3.9 3.6 3.5 3.6 3.6 3.8 4.2 4.6 5.0 5.5 6.0 6.2 6.3 6.4 6.4 6.4 6.4 6.3 6.0 5.6 4.9 4.7 4.4 4.5 5.1 5.1 5.2 5.3 5.5 5.8 5.9 6.0 6.1 6.2 6.4 6.5
4.1 3.9 3.7 3.4 3.4 3.4 3.4 3.5 3.7 3.8 3.9 4.2 4.7 5.2 5.6 6.0 6.2 6.3 6.3 6.3 6.3 6.3 6.4 6.3 6.2 5.9 5.5 4.6 4.5 4.4 4.5 4.5 4.6 5.1 5.2 5.3 5.5 5.5 5.6 5.8 6.1 6.4 6.5
3.6 3.5 3.4 3.1 3.3 3.5 3.6 3.7 3.9 4.2 4.5 4.9 5.3 5.8 6.0 6.0 6.0 5.9 5.8 5.9 5.9 6.0 6.0 6.0 5.5 5.4 5.1 4.6 4.5 4.3 4.2 4.1 4.1 4.3 4.7 4.9 5.1 5.5 5.8 6.0 6.4 6.5 6.8
3.5 3.5 3.4 3.6 3.6 3.8 4.0 4.4 4.7 5.0 5.3 5.6 5.9 5.9 6.0 6.0 5.8 5.8 5.7 5.9 5.9 5.8 5.7 5.6 5.3 5.0 4.7 4.4 4.3 4.2 4.2 4.1 3.9 4.1 4.6 5.0 5.5 6.1 6.6 6.9 7.0 7.0 6.9
3.4 3.4 3.6 3.6 3.9 4.3 4.8 5.3 5.3 5.5 5.7 5.8 5.9 6.0 5.9 5.8 5.7 5.7 5.8 5.8 5.8 5.7 5.7 5.5 5.5 5.3 5.1 4.8 4.5 4.3 4.2 4.2 4.1 4.3 4.7 5.1 5.6 6.1 6.6 7.1 7.1 7.6 7.4
3.6 3.5 3.8 4.3 4.7 5.2 5.2 5.4 5.4 5.7 5.8 5.9 5.9 5.9 5.8 5.7 5.6 5.7 5.8 5.8 5.8 5.8 5.6 5.4 5.2 5.0 4.7 4.7 4.2 4.1 4.1 4.2 4.4 4.4 4.6 5.2 5.7 5.9 6.7 7.0 7.4 7.5 7.3
3.5 3.9 4.2 4.8 5.3 4.9 5.2 5.4 5.7 5.7 5.8 5.8 5.8 5.6 5.6 5.6 5.6 5.7 5.8 5.7 5.6 5.5 5.3 5.2 4.8 4.5 4.4 4.8 4.5 4.6 4.8 5.0 4.8 4.7 5.2 5.4 5.6 6.0 6.5 7.0 7.1 7.1 7.0
3.9 4.2 5.0 5.3 5.0 5.0 5.5 5.6 5.7 5.8 5.8 5.6 5.5 5.4 5.5 5.5 5.5 5.7 5.8 5.7 5.6 5.2 4.9 4.8 4.5 4.3 4.6 5.2 4.9 4.8 4.8 5.0 5.1 5.1 5.3 5.5 5.7 6.3 6.8 7.0 6.9 6.9 6.8
4.1 4.6 5.1 5.2 5.4 5.5 5.7 5.8 5.8 5.7 5.4 5.3 5.3 5.3 5.4 5.5 5.6 5.7 5.8 5.7 5.5 5.3 5.3 5.4 5.2 5.3 5.4 5.5 5.3 5.2 5.0 4.9 5.2 5.3 5.2 5.5 5.8 6.4 6.6 6.5 6.7 6.8 6.2
Wind_Speed
5 8 10 8 8 8 9 8 5 6 6 3 5 4 8 3 3 5 7 7 9 9 7 8 6 6 9 11 9 8 9 10 4 4 8 8 9 11 11 10 11 14 11
9 8 8 8 9 7 8 8 7 7 3 3 3 3 3 3 2 4 5 8 8 9 8 11 11 11 9 11 10 11 10 10 5 8 1 7 7 10 13 12 11 13 10
6 6 8 8 8 10 9 8 8 7 7 2 2 2 3 1 1 3 3 6 8 10 11 13 10 10 9 11 11 10 13 11 6 11 8 3 6 2 2 10 12 13 10
5 5 7 8 9 8 8 9 8 8 8 8 6 5 2 3 3 3 3 5 7 10 12 13 11 10 8 11 11 9 11 12 13 4 11 15 5 4 5 3 4 6 10
6 7 7 7 6 7 8 8 9 10 9 9 7 4 4 2 2 3 6 6 6 7 9 10 11 10 9 10 12 13 12 11 12 12 10 10 12 13 11 12 14 3 7
7 7 6 7 6 7 7 7 8 8 8 8 8 8 8 7 5 5 4 4 4 5 6 6 8 10 11 11 12 14 14 12 12 11 12 11 7 9 8 11 14 14 14
7 7 7 7 7 8 8 6 8 7 7 8 8 8 7 7 6 6 4 6 4 3 6 6 5 6 10 11 11 12 13 13 12 14 12 12 12 13 13 12 14 13 13
7 6 5 5 5 6 6 6 7 7 7 7 8 7 7 4 4 4 4 4 4 5 7 7 7 7 7 8 10 9 11 13 12 16 14 12 12 12 12 13 13 14 13
7 7 6 3 1 3 5 5 7 7 8 8 8 8 8 8 7 7 5 4 5 8 9 8 9 10 10 8 7 6 9 11 13 14 15 13 12 12 12 12 13 13 13
7 7 5 3 1 2 5 8 8 8 7 8 7 7 7 7 7 7 8 7 9 8 9 8 8 9 9 10 10 9 10 10 9 9 12 12 11 12 12 12 12 13 13
7 6 4 2 2 6 7 7 8 9 11 10 9 9 8 8 9 9 9 10 10 10 11 11 11 11 12 11 11 12 13 12 12 11 12 13 12 10 11 12 12 13 13
7 6 3 5 7 7 7 7 9 9 7 7 7 8 7 7 8 9 9 10 10 10 11 12 11 11 12 12 13 14 14 14 14 13 12 12 10 12 12 11 14 15 15
6 5 7 6 7 6 7 8 9 8 9 9 9 10 10 10 10 11 12 13 15 15 15 13 12 13 13 14 14 14 12 10 13 11 11 13 13 14 12 13 13 12 13
7 6 6 7 6 7 7 7 7 7 9 8 8 10 10 11 11 12 13 14 14 15 15 15 16 16 15 14 14 10 15 14 12 12 11 13 13 14 15 14 16 14 13
8 7 7 7 6 6 7 8 8 8 8 8 8 8 8 10 11 12 13 14 14 14 15 15 16 15 15 12 16 18 16 14 10 9 11 13 14 18 20 13 15 15 13
7 8 7 6 7 6 5 5 5 6 5 7 9 9 11 11 12 12 13 14 14 14 14 15 13 16 12 21 26 21 12 9 10 12 14 14 17 17 23 21 21 19 16
9 8 7 6 5 5 4 5 5 5 7 8 8 10 11 12 12 13 14 14 14 14 15 13 14 15 14 22 24 24 8 9 10 11 14 14 12 18 18 22 25 23 21
8 7 5 5 4 3 4 4 6 7 8 6 9 10 12 13 13 14 14 14 13 14 14 13 16 13 15 26 24 14 8 9 11 9 12 12 17 17 18 18 18 18 17
7 6 6 4 3 4 4 6 6 6 7 6 8 9 11 12 13 13 14 13 13 13 14 15 14 18 16 24 15 19 13 13 15 12 8 13 15 21 26 19 19 20 20
7 5 5 4 3 4 6 6 6 6 6 6 8 9 10 11 12 12 13 12 12 14 12 15 15 19 15 11 25 23 13 15 12 10 14 20 18 26 28 22 19 19 21
6 5 4 3 3 5 5 5 6 6 6 7 8 8 9 10 11 11 12 12 12 13 13 14 14 11 10 16 27 26 14 13 13 12 12 12 27 29 34 32 19 18 20
4 4 3 3 4 5 4 5 6 7 6 6 8 9 10 9 10 12 11 11 12 11 13 13 10 10 12 20 23 28 26 25 13 13 12 15 29 34 31 26 28 28 27
3 3 2 3 4 5 5 6 6 6 7 6 9 10 11 10 10 10 12 10 10 10 11 10 11 11 11 12 25 26 27 26 17 13 21 31 31 26 21 27 29 25 11
3 2 2 4 4 4 5 6 7 8 7 8 9 9 10 12 11 8 8 9 9 10 10 12 11 12 12 12 11 11 13 20 16 20 17 21 22 20 20 18 16 8 8
2 2 3 4 5 5 6 7 8 7 8 8 9 10 9 10 11 10 9 9 10 12 12 12 12 12 12 12 23 22 15 14 19 23 12 12 12 12 12 12 14 11 8
2 3 5 5 6 6 7 8 7 7 7 10 9 9 10 9 9 10 11 18 22 25 25 25 19 12 23 28 30 31 30 29 31 13 11 12 12 13 12 13 13 12 12
Wind_Direction
17 33 29 17 14 22 27 19 8 253 200 153 181 201 214 199 210 218 228 222 225 219 213 228 222 206 221 229 223 229 233 243 213 238 253 264 255 251 246 242 241 240 231
39 26 18 11 19 17 14 12 12 10 217 230 202 164 170 210 202 213 227 220 221 218 217 224 230 221 229 235 227 222 238 246 204 234 217 270 275 248 246 240 239 243 239
72 40 26 20 15 19 3 4 4 8 28 80 92 43 68 22 229 241 238 232 226 229 226 234 233 232 223 237 234 230 230 244 235 215 221 235 236 332 270 243 244 245 243
60 53 40 29 21 8 13 27 26 24 29 38 40 23 339 300 295 265 261 263 234 237 233 235 230 225 222 234 238 234 232 230 241 213 230 238 211 239 297 255 269 251 248
85 64 54 40 15 17 25 26 27 26 21 29 40 52 25 295 303 310 315 303 284 255 250 241 234 226 226 235 238 242 234 235 237 238 235 232 245 255 255 268 278 243 248
74 61 56 43 26 17 30 38 41 29 26 30 26 33 29 3 6 351 345 329 317 314 309 269 243 238 237 236 240 246 251 239 240 242 242 239 232 241 243 254 257 261 268
79 58 45 37 29 22 16 20 35 32 27 30 28 29 26 20 7 350 340 345 336 329 331 340 322 280 258 252 252 252 252 250 248 245 244 245 243 250 252 250 259 267 266
106 93 76 57 29 13 7 20 24 23 21 22 13 11 13 9 355 350 344 349 343 327 330 337 335 327 315 284 265 255 255 257 259 257 249 250 249 245 249 254 265 271 268
139 134 110 104 61 358 359 2 17 20 21 18 13 10 6 10 4 358 6 347 348 348 347 338 334 330 324 317 308 299 286 283 281 276 270 264 259 253 252 251 249 255 268
152 141 142 157 201 13 11 26 27 30 21 19 12 7 1 6 0 0 358 350 345 338 335 328 324 317 314 312 310 304 296 295 296 293 289 281 274 270 266 257 249 246 249
151 148 161 204 42 54 55 45 36 32 23 13 6 5 359 1 3 1 353 347 339 333 329 323 317 316 314 310 307 302 297 292 287 284 283 283 280 275 271 269 260 253 243
157 153 143 66 59 70 49 43 40 32 17 360 0 356 353 357 357 351 345 338 330 324 317 314 309 310 312 311 308 305 301 299 296 295 291 285 289 286 285 280 274 265 257
140 91 80 69 69 56 50 42 37 25 10 4 2 357 352 354 351 348 344 341 336 331 326 320 316 317 313 309 307 303 309 318 306 296 292 291 292 290 288 283 282 279 275
126 103 78 65 66 55 48 39 30 19 5 359 359 355 355 357 352 344 340 335 331 326 325 325 324 320 316 316 308 327 318 313 302 296 293 293 289 289 292 290 287 285 284
110 107 80 76 57 45 38 36 22 9 355 357 356 348 355 349 342 338 332 328 327 323 323 324 318 319 316 314 326 317 317 307 297 303 310 306 298 294 287 283 283 282 283
120 97 94 78 58 49 42 28 8 353 356 358 349 357 351 343 337 332 328 325 322 319 318 313 310 311 308 317 310 315 316 318 323 321 319 313 308 307 302 303 298 285 286
112 105 92 81 66 44 50 28 2 352 2 356 2 351 343 336 330 326 324 323 318 317 313 303 313 302 305 304 302 311 302 331 324 317 318 311 319 319 314 317 312 309 303
114 95 88 67 47 56 33 15 17 14 359 355 352 342 335 327 323 321 318 315 314 312 311 312 309 309 309 307 310 309 328 325 306 299 298 312 312 309 312 310 311 307 302
115 116 113 97 70 33 23 28 13 359 348 341 336 327 319 316 316 315 313 312 314 311 314 310 313 309 304 308 331 346 339 323 314 299 303 311 304 306 318 312 307 304 301
101 92 81 92 65 21 28 18 348 338 318 316 316 310 309 307 308 306 312 310 307 311 312 311 304 301 306 324 345 341 323 317 313 310 313 312 308 311 315 315 306 299 301
105 95 75 62 7 5 15 346 325 308 295 301 301 301 303 303 301 308 308 306 308 308 304 306 306 305 329 334 324 322 322 316 310 314 313 313 312 312 312 307 303 295 296
99 89 62 12 346 352 355 324 307 289 291 290 298 304 302 302 306 302 302 305 304 304 310 304 308 320 320 316 318 321 319 314 313 315 315 311 311 312 310 316 313 317 315
124 83 48 344 340 326 328 314 293 297 301 305 303 301 301 300 301 305 308 308 313 312 311 314 320 317 319 313 316 315 317 326 324 318 313 310 310 310 324 319 322 330 325
102 69 10 323 309 322 318 299 301 304 307 303 302 302 304 309 311 304 304 309 310 314 316 318 318 317 314 313 315 322 324 324 324 321 309 308 314 320 318 323 322 314 314
78 25 319 307 307 311 302 301 300 300 307 302 303 306 306 308 309 308 309 312 310 313 318 314 312 311 310 315 325 324 332 327 325 324 319 324 325 319 321 323 321 319 304
10 327 314 306 301 305 298 296 290 296 300 312 310 305 307 304 305 307 310 309 309 312 313 314 311 313 317 321 326 330 326 333 334 330 330 326 322 322 321 323 318 319 306